RH
10 14 15 17 20 26 45 42 27 35 35 37 32 30 30 28 28 27 27 27 26 28 28 27 27 28 28 29 28 27 27 27 28 28 27 27 28 29 31 32 33 33 32 32
9 14 15 16 19 21 40 44 26 28 31 34 32 34 32 28 30 30 29 28 28 28 28 27 28 28 29 31 31 30 29 31 31 31 33 34 34 35 36 36 38 38 38 41
11 16 17 17 18 20 33 36 37 33 34 34 31 32 31 29 33 32 32 32 30 30 30 30 29 31 31 33 32 33 33 35 35 35 39 43 45 44 40 43 44 47 46 46
11 16 17 17 17 20 30 31 47 73 36 34 28 26 37 33 32 33 33 36 37 37 37 33 31 36 38 36 37 39 40 40 44 49 54 56 54 53 53 53 56 56 56 47
8 14 16 15 17 19 30 37 58 84 63 50 38 30 35 38 42 44 42 42 42 44 45 42 42 42 44 46 44 44 48 50 54 62 63 68 72 68 66 65 64 53 44 40
9 14 16 14 17 20 26 34 57 64 60 60 57 53 54 50 53 49 51 53 59 60 58 52 50 52 51 49 52 55 58 59 60 59 62 70 73 77 74 68 52 45 41 46
7 12 15 15 16 18 22 27 38 43 56 62 72 68 74 70 71 79 79 82 79 75 71 66 61 56 52 54 60 63 66 66 64 66 69 75 76 73 64 58 54 45 52 44
5 9 16 15 16 19 22 27 35 47 66 82 86 74 83 91 96 95 95 93 86 80 77 72 67 63 62 64 65 64 64 66 72 77 76 78 74 65 63 54 50 49 43 38
5 7 14 16 17 18 19 24 34 54 70 93 85 93 100 91 89 88 88 80 78 77 73 73 70 68 66 65 63 64 67 72 74 71 69 60 51 50 48 48 42 40 37 36
6 7 10 16 17 20 22 24 31 49 72 88 83 82 90 89 84 70 65 67 66 66 67 66 64 64 64 62 65 70 69 67 62 54 52 50 54 53 51 51 44 36 35 35
10 9 10 16 18 21 22 24 26 35 46 59 74 88 89 69 60 58 59 59 59 58 58 59 59 61 66 65 64 65 60 52 53 54 55 56 50 47 44 41 32 31 32 36
12 11 16 16 20 22 24 23 24 25 36 46 41 42 48 53 56 59 59 57 55 57 57 54 56 60 62 61 58 59 61 58 71 74 56 45 42 42 36 30 29 29 35 44
31 20 13 20 33 29 24 25 24 26 27 31 36 53 54 60 57 56 60 63 61 61 59 59 61 68 74 71 70 72 84 80 64 59 54 43 36 38 34 31 33 33 36 44
48 38 33 27 20 35 40 34 31 29 31 37 37 44 50 46 52 55 55 59 67 69 66 65 73 76 77 70 70 75 64 63 60 58 42 38 40 44 41 40 31 31 33 50
68 54 47 42 38 40 39 54 43 42 42 44 51 51 51 51 53 56 60 62 68 71 74 75 75 71 67 63 71 66 58 46 43 43 44 45 44 47 42 37 36 35 42 56
71 79 70 53 46 47 46 51 60 56 57 56 53 59 58 58 57 54 54 56 53 49 50 63 67 65 52 46 40 38 43 44 49 48 47 46 39 38 36 36 38 43 48 55
94 86 72 80 68 57 50 49 58 64 57 60 63 60 61 60 60 57 55 56 53 58 59 57 54 52 50 47 46 47 45 44 43 43 43 43 44 43 41 42 44 48 54 63
79 100 95 91 98 81 72 54 51 49 53 62 74 85 85 86 95 91 87 90 88 80 83 87 88 91 90 80 68 65 65 60 58 57 60 63 64 63 62 61 59 58 60 64
97 86 95 85 76 96 94 66 65 68 54 53 55 52 59 64 66 72 80 90 98 100 99 100 100 100 100 99 95 97 97 95 89 78 77 78 78 78 80 87 91 94 91 87
100 100 96 100 87 79 100 75 74 74 85 66 53 67 60 54 58 61 59 59 63 68 70 77 83 92 99 100 100 100 100 100 100 100 100 100 100 92 78 73 76 84 92 89
80 92 100 97 88 100 100 85 80 87 100 95 82 73 61 62 67 73 69 65 69 74 68 62 67 71 74 77 81 89 95 98 100 100 98 96 97 100 100 100 100 96 91 88
69 66 96 95 99 100 100 96 97 98 97 100 100 95 82 87 77 65 63 69 71 74 79 85 80 66 57 59 64 71 75 76 79 83 87 83 84 86 84 90 91 91 98 100
86 85 64 68 95 100 93 96 94 97 100 98 97 100 91 87 90 98 97 82 68 73 72 76 75 84 88 86 78 69 61 58 61 61 59 62 64 64 65 71 77 81 72 72
83 95 100 100 81 60 81 99 94 88 94 100 100 99 92 94 92 90 97 92 88 82 85 73 76 83 91 84 80 79 77 68 56 55 51 50 50 53 54 55 53 54 54 56
100 100 88 88 100 75 70 68 68 65 79 99 100 93 88 88 98 98 95 98 100 98 94 86 91 74 76 69 70 67 65 67 64 58 53 45 43 42 42 43 41 36 38 42
100 100 100 86 74 84 85 92 94 99 91 79 86 82 90 94 95 93 94 90 96 99 100 99 96 94 81 69 44 38 33 31 32 33 31 31 30 29 27 28 27 26 27 29
Wind_Speed
91 96 93 88 84 81 85 89 89 84 79 77 73 68 68 64 60 57 54 53 50 50 49 48 47 47 46 45 45 44 45 45 46 46 49 50 52 53 54 57 59 62 65 67
87 97 93 92 89 81 84 87 87 83 81 78 75 71 72 66 62 60 58 56 54 53 53 52 53 52 50 50 50 50 50 50 51 52 54 55 56 57 59 62 65 67 69 71
82 93 93 86 85 80 83 85 82 84 85 82 78 75 73 69 66 64 62 60 59 58 57 56 56 56 55 55 54 55 55 55 56 58 59 60 60 62 64 66 70 72 74 77
79 94 94 89 86 80 78 76 75 82 85 81 80 76 74 71 68 66 65 63 62 61 61 61 60 60 59 59 59 59 60 60 61 61 62 64 65 67 69 71 74 75 77 78
74 91 92 86 83 81 78 75 78 80 79 80 79 77 74 70 68 66 65 64 64 63 63 64 64 63 63 63 63 64 64 64 65 65 67 68 69 72 74 75 76 76 78 83
66 87 90 88 83 82 77 76 82 82 80 77 74 73 71 69 66 64 65 64 64 64 65 66 66 66 66 67 67 67 67 68 68 69 70 71 72 74 75 74 75 77 83 87
56 78 88 85 83 81 77 75 77 78 76 70 70 69 66 68 65 65 64 65 66 66 67 68 68 69 70 70 70 70 70 69 71 71 71 71 72 72 73 75 78 82 88 92
42 63 82 83 83 79 75 74 72 70 69 69 69 66 64 68 66 67 67 68 69 69 70 70 70 70 71 71 71 71 72 71 71 71 71 72 73 75 78 80 84 88 91 91
25 48 72 81 82 79 76 72 69 69 70 71 69 67 70 70 68 70 70 69 69 69 70 70 70 70 71 70 71 71 70 70 70 72 73 75 77 81 82 86 90 92 91 84
10 30 52 74 78 76 76 73 71 71 71 71 69 67 69 70 69 67 66 65 65 65 66 67 68 68 69 68 69 70 70 71 73 75 77 81 84 87 89 92 93 90 81 69
9 13 30 61 72 75 75 73 71 70 70 69 68 67 68 67 66 64 63 63 63 63 63 64 65 67 68 69 70 71 73 75 77 80 84 87 89 92 93 94 88 79 69 61
29 15 10 36 63 72 74 72 71 71 69 68 67 65 66 66 66 64 63 63 64 65 66 68 70 71 72 73 74 76 78 81 85 88 89 92 93 93 91 84 72 65 64 57
45 31 15 4 45 65 70 73 72 70 68 66 65 63 65 65 65 66 67 68 69 70 72 73 75 77 79 80 81 83 84 87 90 93 95 96 93 88 76 69 67 66 63 58
51 38 32 19 0 28 64 71 71 69 68 69 65 66 68 68 68 70 71 72 74 76 78 80 81 83 85 87 88 89 92 94 96 92 92 86 72 67 67 65 58 50 44 37
47 49 37 25 18 9 13 42 60 70 73 69 70 71 71 71 73 74 76 78 81 83 84 85 88 90 92 93 95 92 91 88 85 80 67 67 64 64 62 54 49 43 33 30
47 44 42 38 27 14 7 4 9 38 65 75 74 72 75 75 79 83 83 84 85 86 86 86 87 89 88 83 79 75 68 64 65 66 63 61 55 49 48 46 41 36 33 34
46 44 43 41 38 33 19 17 16 15 16 20 28 37 44 49 52 55 58 61 57 56 57 56 57 56 55 57 56 55 53 51 50 48 47 47 46 46 45 43 42 42 40 41
40 44 44 43 38 40 38 31 24 23 27 30 31 32 35 36 37 39 41 43 45 46 47 49 50 51 52 52 51 51 51 51 51 50 49 49 48 48 48 48 48 49 50 49
43 40 41 42 43 42 43 42 40 35 32 30 35 40 43 44 45 47 49 51 53 54 55 56 57 58 58 58 58 59 59 59 59 59 59 59 58 58 57 56 56 56 57 58
51 50 47 47 45 45 48 51 48 46 46 41 40 42 43 48 48 50 52 56 60 62 64 65 65 66 67 67 67 67 66 65 65 65 66 67 69 70 69 69 68 68 68 68
57 56 55 53 51 53 56 53 54 54 53 54 55 52 49 51 53 56 59 61 62 63 65 66 68 70 73 76 78 79 78 78 78 78 78 77 76 76 76 77 77 78 77 76
60 60 60 59 58 59 61 61 63 61 62 61 62 64 59 61 63 65 64 63 63 63 68 74 76 76 77 78 80 83 84 86 87 88 89 89 90 89 89 88 87 87 85 84
69 68 63 67 67 67 65 65 65 66 68 69 71 70 68 68 65 71 76 78 77 76 75 71 76 80 82 83 85 87 87 89 90 90 90 92 96 98 100 98 97 97 97 96
73 74 74 76 74 70 72 72 73 73 71 74 77 80 76 77 78 73 73 73 76 78 80 75 74 78 82 86 88 90 93 95 93 96 95 96 95 97 100 102 102 102 103 103
84 85 82 80 83 82 80 78 79 79 77 80 84 84 84 86 86 82 78 78 80 82 82 83 82 82 83 86 89 92 94 95 96 95 95 95 96 97 97 99 101 101 102 101
91 90 90 89 88 88 87 87 85 85 87 88 88 90 91 95 92 86 83 82 85 85 87 89 90 90 90 92 91 90 88 89 90 91 93 93 94 93 93 93 95 98 98 99
Wind_Direction
199 198 200 199 202 203 206 212 213 215 218 219 221 221 228 230 233 236 238 241 244 247 250 253 256 258 261 263 266 269 271 274 278 281 283 286 288 289 291 293 295 295 296 298
197 197 201 199 201 204 207 212 213 216 219 221 223 222 228 230 233 237 240 244 247 250 252 255 259 261 264 267 270 273 276 278 280 283 285 287 289 291 291 292 294 296 297 297
196 196 200 199 203 203 208 213 214 217 220 222 224 225 229 231 234 238 242 246 248 252 255 258 261 264 266 269 271 275 277 280 282 285 287 289 290 291 291 292 294 295 298 300
197 198 200 199 202 204 208 212 213 218 222 224 226 227 230 232 235 239 243 246 249 252 256 259 261 264 267 270 273 276 278 281 283 285 286 287 289 290 292 293 294 297 298 300
200 200 201 199 202 203 206 208 212 217 221 224 227 229 230 234 236 240 244 247 251 254 256 259 262 264 267 270 272 275 278 280 283 285 286 288 290 290 291 292 294 296 300 302
203 201 202 200 201 206 206 208 213 216 219 222 226 229 231 234 237 241 245 248 251 254 257 260 263 266 268 271 273 276 278 281 283 285 287 288 289 289 290 293 295 299 301 304
204 204 203 203 203 206 209 211 215 218 220 223 226 227 229 234 238 241 245 250 254 257 260 262 265 267 269 272 274 277 279 282 285 286 287 287 288 290 293 295 298 301 304 304
207 206 206 204 204 207 210 213 217 220 223 225 226 228 231 236 238 243 248 252 254 256 258 261 264 267 270 272 275 277 280 283 284 284 286 288 292 294 297 299 300 302 303 304
209 208 209 209 208 209 210 214 217 220 223 226 228 229 232 237 242 246 250 251 252 255 258 261 264 266 270 273 275 278 279 280 282 285 288 292 294 296 297 299 301 300 302 303
179 208 209 214 211 212 213 216 219 221 224 229 232 234 238 244 247 249 251 252 254 256 259 262 264 267 269 273 274 276 277 281 285 288 291 293 295 297 298 298 299 300 299 300
69 192 211 215 216 216 218 220 222 226 229 233 235 238 242 246 247 249 251 253 255 258 261 263 266 268 270 273 275 278 282 285 288 292 293 294 295 296 297 298 299 298 296 297
38 60 195 213 222 222 223 224 227 228 231 235 238 239 243 247 250 253 256 258 260 264 267 270 271 274 276 278 281 282 285 288 290 291 292 293 295 298 296 297 296 295 293 292
33 34 37 191 221 229 230 231 232 234 237 240 243 247 250 253 256 259 262 264 268 271 274 276 279 281 282 283 285 286 287 287 288 290 291 293 293 293 293 296 297 294 289 284
37 31 31 40 171 226 234 237 240 242 245 247 250 252 255 259 261 263 266 268 270 273 275 277 278 280 282 283 283 283 285 286 287 290 290 291 292 291 294 296 297 296 291 279
21 29 34 22 27 39 236 240 246 246 249 252 253 255 260 263 266 268 270 271 273 275 276 277 279 280 281 282 281 282 283 285 285 288 287 288 289 289 292 294 295 294 285 268
1 8 11 24 21 352 347 333 265 251 251 252 255 259 259 263 267 268 270 271 271 273 276 277 277 278 280 280 281 281 282 284 285 286 285 287 288 287 288 289 289 284 274 270
343 346 351 356 359 10 0 310 281 267 261 257 259 262 265 266 267 267 268 269 271 274 274 276 278 279 280 281 281 281 281 284 285 285 283 284 285 286 287 284 283 279 275 273
334 332 332 334 340 337 342 352 332 295 278 269 265 265 267 267 269 272 274 276 276 277 277 278 279 280 282 283 283 283 283 282 281 279 278 277 277 279 279 278 278 278 277 276
321 323 321 321 322 321 318 328 333 337 322 292 282 272 273 273 273 272 272 273 274 275 274 274 275 276 277 276 276 277 278 278 279 278 277 277 277 277 276 276 276 276 277 276
312 314 312 310 310 311 307 312 315 319 322 320 304 296 286 278 276 276 276 274 273 275 276 277 277 277 277 277 276 275 274 274 274 275 277 277 278 278 276 275 274 275 275 275
306 305 306 303 305 306 301 302 306 306 311 312 313 312 299 292 290 286 281 278 277 278 278 276 275 276 276 276 275 274 272 272 274 274 274 272 272 273 273 274 274 275 274 273
302 301 301 302 301 297 298 301 301 301 300 303 309 309 308 300 293 290 288 288 285 285 286 279 278 277 275 275 275 272 273 274 274 275 274 273 273 273 272 272 272 272 271 272
295 297 300 299 297 296 295 296 298 296 292 295 302 305 305 305 302 290 286 286 286 285 287 286 279 277 277 277 278 278 276 273 273 274 276 274 274 274 272 272 272 272 272 272
296 293 291 292 295 296 294 295 296 296 294 292 297 300 302 304 304 301 293 289 288 288 289 287 284 282 278 277 277 276 276 277 277 277 276 275 275 275 274 273 273 273 273 272
291 290 290 291 290 294 296 295 295 297 297 295 295 298 301 303 304 301 296 293 291 292 291 290 289 286 283 279 279 277 277 277 278 279 280 279 278 277 277 276 275 274 274 272
291 290 287 289 292 292 295 294 293 293 294 295 295 297 300 304 302 298 298 296 294 293 291 289 288 286 286 283 280 279 279 279 279 278 278 278 277 277 277 276 276 276 276 276